Time,TemperatureF,DewpointF,PressureIn,WindDirection,WindDirectionDegrees,WindSpeedMPH,WindSpeedGustMPH,Humidity,HourlyPrecipIn,Conditions,Clouds,dailyrainin,SoftwareType,DateUTC
2013-07-31 00:12:00,73.9,71.0,29.95,NE,44,0.0,0.0,90,0.00,,,2.00,weatherlink.com 1.10,2013-07-31 04:12:00,
2013-07-31 00:27:00,73.9,71.0,29.95,NNE,15,0.0,1.0,90,0.00,,,2.00,weatherlink.com 1.10,2013-07-31 04:27:00,
2013-07-31 00:42:00,73.9,71.0,29.95,NNE,22,0.0,0.0,90,0.00,,,2.00,weatherlink.com 1.10,2013-07-31 04:42:00,
2013-07-31 00:57:00,73.9,71.0,29.95,West,278,0.0,0.0,90,0.00,,,2.00,weatherlink.com 1.10,2013-07-31 04:57:00,
2013-07-31 01:12:00,73.7,71.0,29.94,North,5,0.0,1.0,90,0.00,,,0.00,weatherlink.com 1.10,2013-07-31 05:12:00,
2013-07-31 01:27:00,73.3,70.0,29.94,North,4,0.0,0.0,90,0.00,,,0.00,weatherlink.com 1.10,2013-07-31 05:27:00,
2013-07-31 01:43:00,73.2,71.0,29.94,WNW,302,0.0,0.0,91,0.00,,,0.00,weatherlink.com 1.10,2013-07-31 05:43:00,
2013-07-31 01:58:00,72.8,70.0,29.94,WSW,239,0.0,0.0,91,0.00,,,0.00,weatherlink.com 1.10,2013-07-31 05:58:00,
2013-07-31 02:13:00,72.8,70.0,29.94,North,357,0.0,1.0,91,0.00,,,0.00,weatherlink.com 1.10,2013-07-31 06:13:00,
2013-07-31 02:29:00,72.6,70.0,29.93,North,356,0.0,0.0,91,0.00,,,0.00,weatherlink.com 1.10,2013-07-31 06:29:00,
2013-07-31 02:44:00,72.3,70.0,29.93,West,262,0.0,0.0,91,0.00,,,0.00,weatherlink.com 1.10,2013-07-31 06:44:00,
2013-07-31 02:59:00,72.2,70.0,29.93,West,262,0.0,0.0,92,0.00,,,0.00,weatherlink.com 1.10,2013-07-31 06:59:00,
2013-07-31 03:14:00,72.3,70.0,29.93,West,260,0.0,0.0,92,0.00,,,0.00,weatherlink.com 1.10,2013-07-31 07:14:00,
2013-07-31 03:29:00,72.3,70.0,29.93,WNW,293,0.0,1.0,92,0.00,,,0.00,weatherlink.com 1.10,2013-07-31 07:29:00,
2013-07-31 03:46:00,72.2,70.0,29.92,ESE,108,0.0,1.0,92,0.00,,,0.00,weatherlink.com 1.10,2013-07-31 07:46:00,
2013-07-31 04:02:00,72.9,71.0,29.92,East,79,1.0,1.0,92,0.00,,,0.00,weatherlink.com 1.10,2013-07-31 08:02:00,
2013-07-31 04:16:00,73.3,71.0,29.92,ENE,78,0.0,2.0,92,0.00,,,0.00,weatherlink.com 1.10,2013-07-31 08:16:00,
2013-07-31 04:31:00,73.7,71.0,29.92,ENE,65,0.0,3.0,91,0.00,,,0.00,weatherlink.com 1.10,2013-07-31 08:31:00,
2013-07-31 04:46:00,73.9,71.0,29.92,ENE,78,0.0,2.0,91,0.00,,,0.00,weatherlink.com 1.10,2013-07-31 08:46:00,
2013-07-31 05:02:00,73.9,71.0,29.92,East,79,0.0,0.0,91,0.00,,,0.00,weatherlink.com 1.10,2013-07-31 09:02:00,
2013-07-31 05:16:00,73.5,71.0,29.92,East,101,0.0,0.0,91,0.00,,,0.00,weatherlink.com 1.10,2013-07-31 09:16:00,
2013-07-31 05:32:00,73.8,71.0,29.93,East,84,0.0,2.0,91,0.01,,,0.01,weatherlink.com 1.10,2013-07-31 09:32:00,
2013-07-31 05:47:00,73.8,71.0,29.93,ENE,75,0.0,0.0,91,0.01,,,0.01,weatherlink.com 1.10,2013-07-31 09:47:00,
2013-07-31 06:03:00,73.4,71.0,29.93,ENE,75,0.0,0.0,91,0.01,,,0.01,weatherlink.com 1.10,2013-07-31 10:03:00,
2013-07-31 06:17:00,72.9,70.0,29.93,SSW,205,0.0,0.0,90,0.01,,,0.01,weatherlink.com 1.10,2013-07-31 10:17:00,
2013-07-31 06:32:00,-999.0,-99.9,29.93,North,-999,-999.0,-999.0,-999,0.00,,,0.01,weatherlink.com 1.10,2013-07-31 10:32:00,
2013-07-31 06:48:00,-999.0,-99.9,29.93,North,-999,-999.0,-999.0,-999,0.00,,,0.01,weatherlink.com 1.10,2013-07-31 10:48:00,
2013-07-31 07:04:00,-999.0,-99.9,29.93,North,-999,-999.0,-999.0,-999,0.00,,,0.01,weatherlink.com 1.10,2013-07-31 11:04:00,
2013-07-31 07:18:00,74.1,71.0,29.93,East,84,0.0,0.0,91,0.00,,,0.01,weatherlink.com 1.10,2013-07-31 11:18:00,
2013-07-31 07:34:00,74.4,72.0,29.93,East,79,0.0,2.0,91,0.00,,,0.01,weatherlink.com 1.10,2013-07-31 11:34:00,
2013-07-31 07:49:00,74.7,72.0,29.94,WNW,293,0.0,0.0,91,0.00,,,0.01,weatherlink.com 1.10,2013-07-31 11:49:00,
2013-07-31 08:05:00,75.6,73.0,29.94,WSW,250,0.0,0.0,91,0.00,,,0.01,weatherlink.com 1.10,2013-07-31 12:05:00,
2013-07-31 08:21:00,76.3,73.0,29.94,East,90,1.0,3.0,88,0.00,,,0.01,weatherlink.com 1.10,2013-07-31 12:21:00,
2013-07-31 08:36:00,77.2,73.0,29.94,ENE,60,3.0,5.0,86,0.00,,,0.01,weatherlink.com 1.10,2013-07-31 12:36:00,
2013-07-31 08:51:00,78.0,73.0,29.95,South,173,2.0,6.0,84,0.00,,,0.01,weatherlink.com 1.10,2013-07-31 12:51:00,
2013-07-31 09:06:00,78.3,72.0,29.94,East,82,3.0,7.0,82,0.00,,,0.01,weatherlink.com 1.10,2013-07-31 13:06:00,
2013-07-31 09:21:00,78.9,73.0,29.94,ENE,70,3.0,5.0,82,0.00,,,0.01,weatherlink.com 1.10,2013-07-31 13:21:00,
2013-07-31 09:36:00,78.9,72.0,29.94,SE,141,1.0,7.0,80,0.00,,,0.01,weatherlink.com 1.10,2013-07-31 13:36:00,
2013-07-31 09:51:00,79.3,72.0,29.95,ESE,105,3.0,4.0,79,0.00,,,0.01,weatherlink.com 1.10,2013-07-31 13:51:00,
2013-07-31 10:06:00,79.5,73.0,29.95,East,82,2.0,6.0,80,0.00,,,0.01,weatherlink.com 1.10,2013-07-31 14:06:00,
2013-07-31 10:22:00,79.8,72.0,29.95,ESE,105,3.0,5.0,78,0.00,,,0.01,weatherlink.com 1.10,2013-07-31 14:22:00,
2013-07-31 10:37:00,80.1,72.0,29.95,ESE,108,3.0,6.0,77,0.00,,,0.01,weatherlink.com 1.10,2013-07-31 14:37:00,
2013-07-31 10:52:00,81.3,73.0,29.95,SE,133,2.0,6.0,75,0.00,,,0.01,weatherlink.com 1.10,2013-07-31 14:52:00,
2013-07-31 11:07:00,81.4,73.0,29.95,SSW,203,5.0,8.0,76,0.00,,,0.01,weatherlink.com 1.10,2013-07-31 15:07:00,
2013-07-31 11:22:00,81.1,72.0,29.95,ESE,111,2.0,5.0,74,0.00,,,0.01,weatherlink.com 1.10,2013-07-31 15:22:00,
2013-07-31 11:38:00,81.9,73.0,29.95,South,188,3.0,5.0,74,0.00,,,0.01,weatherlink.com 1.10,2013-07-31 15:38:00,
2013-07-31 11:53:00,82.8,72.0,29.95,SSE,151,5.0,7.0,69,0.00,,,0.01,weatherlink.com 1.10,2013-07-31 15:53:00,
2013-07-31 12:08:00,81.7,70.0,29.95,SE,126,3.0,6.0,67,0.00,,,0.01,weatherlink.com 1.10,2013-07-31 16:08:00,
2013-07-31 12:23:00,83.1,70.0,29.95,SSE,155,4.0,8.0,65,0.00,,,0.01,weatherlink.com 1.10,2013-07-31 16:23:00,
2013-07-31 12:39:00,83.9,67.0,29.94,SSE,152,6.0,11.0,57,0.00,,,0.01,weatherlink.com 1.10,2013-07-31 16:39:00,
2013-07-31 12:54:00,83.7,69.0,29.94,South,169,4.0,9.0,62,0.00,,,0.01,weatherlink.com 1.10,2013-07-31 16:54:00,
2013-07-31 13:09:00,83.5,70.0,29.93,East,79,5.0,6.0,63,0.00,,,0.01,weatherlink.com 1.10,2013-07-31 17:09:00,
2013-07-31 13:24:00,83.9,68.0,29.93,ENE,77,5.0,8.0,59,0.00,,,0.01,weatherlink.com 1.10,2013-07-31 17:24:00,
2013-07-31 13:39:00,84.7,69.0,29.93,East,83,4.0,6.0,59,0.00,,,0.01,weatherlink.com 1.10,2013-07-31 17:39:00,
2013-07-31 13:54:00,84.0,70.0,29.92,ESE,118,4.0,7.0,63,0.00,,,0.01,weatherlink.com 1.10,2013-07-31 17:54:00,
2013-07-31 14:11:00,85.0,71.0,29.91,ENE,78,7.0,7.0,64,0.00,,,0.01,weatherlink.com 1.10,2013-07-31 18:11:00,
2013-07-31 14:26:00,85.5,72.0,29.91,SE,135,5.0,8.0,64,0.00,,,0.01,weatherlink.com 1.10,2013-07-31 18:26:00,
2013-07-31 14:41:00,84.4,71.0,29.91,East,84,4.0,7.0,65,0.00,,,0.01,weatherlink.com 1.10,2013-07-31 18:41:00,
2013-07-31 15:11:00,86.0,72.0,29.90,SSE,165,4.0,5.0,64,0.00,,,0.01,weatherlink.com 1.10,2013-07-31 19:11:00,
2013-07-31 15:26:00,84.4,70.0,29.89,SE,142,4.0,10.0,63,0.00,,,0.01,weatherlink.com 1.10,2013-07-31 19:26:00,
2013-07-31 15:41:00,83.7,70.0,29.89,South,177,2.0,7.0,64,0.00,,,0.01,weatherlink.com 1.10,2013-07-31 19:41:00,
2013-07-31 15:56:00,83.2,71.0,29.89,South,189,7.0,10.0,66,0.00,,,0.01,weatherlink.com 1.10,2013-07-31 19:56:00,
2013-07-31 16:12:00,82.6,70.0,29.88,SSE,159,4.0,12.0,66,0.00,,,0.01,weatherlink.com 1.10,2013-07-31 20:12:00,
2013-07-31 16:27:00,82.6,70.0,29.88,South,169,6.0,8.0,66,0.00,,,0.01,weatherlink.com 1.10,2013-07-31 20:27:00,
2013-07-31 16:42:00,82.7,69.0,29.88,South,173,8.0,11.0,64,0.00,,,0.01,weatherlink.com 1.10,2013-07-31 20:42:00,
2013-07-31 16:57:00,82.8,70.0,29.88,South,169,5.0,12.0,65,0.00,,,0.01,weatherlink.com 1.10,2013-07-31 20:57:00,
2013-07-31 17:12:00,82.8,71.0,29.87,SSE,162,6.0,10.0,67,0.00,,,0.01,weatherlink.com 1.10,2013-07-31 21:12:00,
2013-07-31 17:28:00,82.4,70.0,29.87,SSE,159,5.0,11.0,67,0.00,,,0.01,weatherlink.com 1.10,2013-07-31 21:28:00,
2013-07-31 17:43:00,82.1,70.0,29.87,SSE,153,2.0,11.0,67,0.00,,,0.01,weatherlink.com 1.10,2013-07-31 21:43:00,
2013-07-31 17:58:00,81.9,71.0,29.86,SSW,205,5.0,11.0,69,0.00,,,0.01,weatherlink.com 1.10,2013-07-31 21:58:00,
2013-07-31 18:13:00,81.8,72.0,29.86,SE,141,3.0,10.0,71,0.00,,,0.01,weatherlink.com 1.10,2013-07-31 22:13:00,
2013-07-31 18:29:00,81.5,72.0,29.86,SE,141,6.0,12.0,72,0.00,,,0.01,weatherlink.com 1.10,2013-07-31 22:29:00,
2013-07-31 18:44:00,81.3,71.0,29.85,SE,132,3.0,8.0,72,0.00,,,0.01,weatherlink.com 1.10,2013-07-31 22:44:00,
2013-07-31 18:59:00,80.9,71.0,29.85,SSE,160,4.0,9.0,72,0.00,,,0.01,weatherlink.com 1.10,2013-07-31 22:59:00,
2013-07-31 19:16:00,80.2,71.0,29.85,SSW,195,5.0,9.0,74,0.00,,,0.01,weatherlink.com 1.10,2013-07-31 23:16:00,
2013-07-31 19:31:00,79.7,71.0,29.86,South,180,4.0,6.0,75,0.00,,,0.01,weatherlink.com 1.10,2013-07-31 23:31:00,
2013-07-31 19:46:00,79.2,71.0,29.86,South,181,2.0,5.0,76,0.00,,,0.01,weatherlink.com 1.10,2013-07-31 23:46:00,
2013-07-31 20:02:00,78.7,71.0,29.86,SSE,149,3.0,5.0,77,0.00,,,0.01,weatherlink.com 1.10,2013-08-01 00:02:00,
2013-07-31 20:16:00,78.3,71.0,29.85,South,179,4.0,6.0,78,0.00,,,0.01,weatherlink.com 1.10,2013-08-01 00:16:00,
2013-07-31 20:31:00,77.9,71.0,29.86,SSW,195,4.0,5.0,78,0.00,,,0.01,weatherlink.com 1.10,2013-08-01 00:31:00,
2013-07-31 20:46:00,77.9,71.0,29.87,South,181,2.0,8.0,78,0.00,,,0.01,weatherlink.com 1.10,2013-08-01 00:46:00,
2013-07-31 21:02:00,77.8,70.0,29.87,SSE,155,3.0,3.0,78,0.00,,,0.01,weatherlink.com 1.10,2013-08-01 01:02:00,
2013-07-31 21:16:00,77.7,70.0,29.87,South,180,2.0,6.0,78,0.00,,,0.01,weatherlink.com 1.10,2013-08-01 01:16:00,
2013-07-31 21:32:00,77.6,70.0,29.87,SE,134,1.0,4.0,78,0.00,,,0.01,weatherlink.com 1.10,2013-08-01 01:32:00,
2013-07-31 21:47:00,77.1,70.0,29.87,SE,134,0.0,2.0,79,0.00,,,0.01,weatherlink.com 1.10,2013-08-01 01:47:00,
2013-07-31 22:02:00,76.7,70.0,29.87,SSE,158,2.0,2.0,80,0.00,,,0.01,weatherlink.com 1.10,2013-08-01 02:02:00,
2013-07-31 22:17:00,76.5,70.0,29.87,SSE,163,1.0,2.0,81,0.00,,,0.01,weatherlink.com 1.10,2013-08-01 02:17:00,
2013-07-31 22:32:00,76.5,70.0,29.87,SSE,160,1.0,2.0,81,0.00,,,0.01,weatherlink.com 1.10,2013-08-01 02:32:00,
2013-07-31 22:48:00,76.3,70.0,29.86,SSW,194,0.0,1.0,82,0.00,,,0.01,weatherlink.com 1.10,2013-08-01 02:48:00,
2013-07-31 23:03:00,76.2,70.0,29.86,SE,134,0.0,1.0,82,0.00,,,0.01,weatherlink.com 1.10,2013-08-01 03:03:00,
2013-07-31 23:18:00,76.1,71.0,29.85,East,94,0.0,0.0,83,0.00,,,0.01,weatherlink.com 1.10,2013-08-01 03:18:00,
2013-07-31 23:33:00,76.0,71.0,29.85,South,184,0.0,0.0,83,0.00,,,0.01,weatherlink.com 1.10,2013-08-01 03:33:00,
2013-07-31 23:49:00,76.0,71.0,29.85,SSW,207,1.0,2.0,83,0.00,,,0.01,weatherlink.com 1.10,2013-08-01 03:49:00,